Location: Bluff Heights
(33.7692°N, 118.1592°W)
Time: 22:45:02
(UTC+00:00)

Tiros 1 - Pass Details

Date: 27 July 2021
Orbit: 630 x 663 km, 48.4° (Epoch: 20 September)

Event Time Altitude Azimuth Distance (km) Brightness Sun altitude
Rises 04:40:16 0° 267° (W) 2,969 11.3 -19.0°
Reaches altitude 10° 04:42:59 10° 281° (WNW) 2,054 10.6 -19.4°
Maximum altitude 04:46:51 24° 336° (NNW) 1,328 9.4 -20.0°
Drops below altitude 10° 04:50:42 10° 31° (NNE) 2,040 9.8 -20.6°
Sets 04:53:25 0° 46° (NE) 2,945 10.5 -21.0°
